Regional Weather Roundup
Issued by NWS Goodland, KS

Home | Current Version | Previous Version | Graphics & Text | Print | Product List | Glossary On
Versions: 1 2 3 4 5 6 7 8 9 10 11 12 13 14 15 16 17 18 19 20 21 22 23 24 25 26 27 28 29 30 31 32 33 34 35 36 37 38 39 40 41 42 43 44 45 46 47 48 49 50
000
ASUS43 KGLD 011059
RWRGLD

GOODLAND FORECAST AREA HOURLY WEATHER ROUNDUP
NATIONAL WEATHER SERVICE GOODLAND KS
500 AM MDT WED APR 01 2015

...OFFICIAL OBSERVATIONS...

CITY           SKY/WX    TMP DP  RH WIND       PRES   REMARKS
GOODLAND KS    CLEAR     50  44  80 S14       29.73F
HILL CITY KS   CLEAR     59  41  51 S14       29.75F
IMPERIAL NEB     N/A     56  41  57 S16       29.67F
MCCOOK NEB     CLEAR     55  39  54 VRB3      29.70F
AKRON CO       CLEAR     53  23  31 SW13      29.70F
BURLINGTON CO  CLEAR     49  43  80 S13       29.73F
LIMON CO       PTCLDY    28  23  81 N3        29.79F
$$

...UNOFFICIAL OBSERVATIONS...

CITY           SKY/WX    TMP DP  RH WIND       PRES   REMARKS
COLBY KS       CLEAR     55  46  71 S18       29.74F
LENORA KS        N/A     56  32  40 MISG        N/A
NORTON KS      CLEAR     57  37  47 S12G20    29.72F
SHARON SPRINGS   N/A     50  44  79 S10         N/A
TRIBUNE KS     CLEAR     48  46  93 S8        29.77F
KIT CARSON CO    N/A     39  33  80 MISG        N/A
YUMA CO          N/A     52  30  43 SW18        N/A
$$



USA.gov is the U.S. government's official web portal to all federal, state and local government web resources and services.